TIGRISAT

Last updated on Sat Aug 15 2026 00:03:44 GMT+0000 (Coordinated Universal Time)

1 40043U 14033AK 26226.39074093 .00000917 00000+0 11101-3 0 9998 2 40043 97.7908 15.1015 0047818 242.7740 116.8599 14.85326464654265
UTC large
Height (km)
Speed (km/s)
/
Latitude / Longitude
Inclination (degrees)
Orbital Period (minutes)
Azimuth
Elevation
Range (km)
Doppler Factor

Next 0 passes for location: London (51.5072 / 0.1276)

No passes found over London.
TIGRISAT